Flag for Germany

Past Weather in Oberhausen, North Rhine-Westphalia, Germany — Yesterday and Last 2 Weeks

Now
46 °F

Clear.


Feels Like: 46 °F
Forecast: 77 / 49 °F
Wind: 2 mph from Northeast

Location: Duesseldorf
Current Time: Sep 20, 2020 at 4:24:04 am
Latest Report: Sep 20, 2020 at 3:50 am
Visibility: 10 mi
Pressure30.01 "Hg
Humidity: 87%
Dew Point: 43 °F
Location of OberhausenLocation

Past Weather in Oberhausen — Graph

°F

Oberhausen Temperature Yesterday

Maximum temperature yesterday: 81 °F (at 3:50 pm)
Minimum temperature yesterday: 46 °F (at 7:50 am)
Average temperature yesterday: 63 °F

High & Low Weather Summary for the Past Weeks

 TemperatureHumidityPressure
High93 °F (Sep 15, 3:50 pm)100% (Sep 5, 5:50 am)30.36 "Hg (Sep 5, 5:50 am)
Low45 °F (Sep 7, 5:50 am)23% (Sep 15, 5:20 pm)30.01 "Hg (Sep 11, 4:20 pm)
Average63 °F68%30.16 "Hg
* Reported Sep 5 2:20 am — Sep 20 2:50 am, Oberhausen. Weather by CustomWeather, © 2020

Note: Actual official high and low records may vary slightly from our data, if they occured in-between our weather recording intervals... More about our weather records

Oberhausen Weather History for the Previous 24 Hours

Scroll right to see more
 ConditionsComfort  
Time TempWeatherWind HumidityBarometerVisibility
2:50 am
Sun, Sep 20
46 °FClear.No wind87%30.01 "Hg10 mi
2:20 am50 °FClear.1 mph76%30.01 "Hg10 mi
1:50 am50 °FClear.2 mph82%30.01 "Hg10 mi
1:20 am50 °FPassing clouds.3 mph76%30.01 "HgN/A
12:50 am55 °FClear.3 mph67%30.01 "Hg10 mi
12:20 am57 °FClear.5 mph63%30.01 "Hg10 mi
11:50 pm
Sat, Sep 19
57 °FClear.5 mph59%30.01 "Hg10 mi
11:20 pm57 °FClear.3 mph59%30.04 "Hg10 mi
10:50 pm61 °FClear.5 mph48%30.01 "Hg10 mi
10:20 pm61 °FClear.5 mph52%30.01 "Hg10 mi
9:50 pm63 °FClear.6 mph49%30.01 "Hg10 mi
9:20 pm66 °FClear.6 mph40%30.01 "Hg10 mi
8:50 pm64 °FClear.7 mph46%30.01 "Hg10 mi
8:20 pm68 °FClear.8 mph40%30.01 "Hg10 mi
7:50 pm72 °FClear.8 mph36%30.01 "Hg10 mi
7:20 pm73 °FSunny.7 mph33%30.01 "Hg10 mi
6:50 pm75 °FSunny.9 mph31%30.01 "Hg10 mi
6:20 pm77 °FSunny.10 mph32%30.01 "Hg10 mi
5:50 pm79 °FSunny.10 mph28%30.01 "Hg10 mi
5:20 pm79 °FPassing clouds.7 mph28%30.01 "HgN/A
4:50 pm81 °FPassing clouds.7 mph23%30.01 "HgN/A
4:20 pm81 °FPassing clouds.7 mph23%30.01 "HgN/A
3:50 pm81 °FSunny.6 mph23%30.01 "Hg10 mi
3:20 pm79 °FPassing clouds.8 mph24%30.04 "HgN/A
2:50 pm79 °FPassing clouds.8 mph24%30.04 "HgN/A
1:50 pm77 °FPassing clouds.6 mph26%30.07 "HgN/A
1:20 pm75 °FPassing clouds.8 mph27%30.07 "HgN/A
12:50 pm73 °FPassing clouds.8 mph29%30.07 "HgN/A
12:20 pm73 °FPassing clouds.9 mph31%30.07 "HgN/A
11:50 am72 °FPassing clouds.8 mph33%30.09 "HgN/A
11:20 am70 °FPassing clouds.7 mph35%30.09 "HgN/A
10:50 am68 °FPassing clouds.7 mph38%30.09 "HgN/A
10:20 am66 °FPassing clouds.8 mph40%30.09 "HgN/A
9:50 am63 °FSunny.2 mph52%30.09 "Hg10 mi
9:20 am57 °FSunny.2 mph63%30.09 "Hg10 mi
8:50 am55 °FSunny.2 mph67%30.09 "Hg10 mi
8:20 am52 °FSunny.2 mph72%30.09 "Hg10 mi
7:50 am46 °FSunny.3 mph82%30.09 "Hg10 mi
7:20 am48 °FSunny.3 mph76%30.09 "Hg10 mi
6:50 am48 °FClear.5 mph76%30.09 "Hg10 mi
6:20 am48 °FClear.5 mph76%30.09 "Hg10 mi
5:50 am50 °FClear.3 mph76%30.09 "Hg10 mi
5:20 am50 °FClear.5 mph76%30.09 "Hg10 mi
4:50 am50 °FClear.5 mph71%30.09 "Hg10 mi
4:20 am50 °FClear.3 mph76%30.09 "Hg10 mi
Weather by CustomWeather, © 2020

See weather overview